Theta_e
330 328 328 329 330 332 334 335 334 336 339 339 337 337 340 346 349 351 353 347 345 344 344 345 345 347 348 348 348 348 348 347 346 345 343 341 337 336 334 332 331 331 331
331 331 328 330 334 331 331 333 333 335 337 336 335 337 342 344 347 349 350 345 342 339 344 345 346 347 347 347 348 348 347 346 344 342 340 338 335 333 332 331 331 331 331
334 332 330 327 329 335 335 334 336 337 336 335 335 337 342 345 346 347 350 344 342 343 343 340 347 348 348 347 346 346 346 344 341 340 339 337 333 332 331 331 331 331 330
334 334 334 334 336 335 334 331 332 332 332 333 333 334 343 345 345 346 348 347 337 338 340 343 344 347 348 346 347 346 344 342 341 339 337 333 332 332 331 330 330 330 330
334 336 336 336 337 334 334 332 330 332 330 332 332 335 343 344 345 346 339 339 339 337 337 341 343 345 347 348 347 346 342 339 338 336 333 332 331 331 330 330 329 329 328
333 336 337 336 336 332 334 334 334 332 332 332 331 337 341 343 344 340 338 338 339 338 337 337 339 347 344 346 346 344 340 337 334 333 332 332 331 330 329 328 327 327 326
333 333 333 334 334 333 334 335 335 333 332 334 332 332 337 340 338 339 339 338 336 336 336 336 337 343 341 344 343 341 338 336 334 332 331 332 329 329 328 327 326 326 325
333 333 335 333 334 330 334 334 335 331 334 337 328 329 321 326 335 336 336 333 333 334 334 335 337 337 337 338 342 339 337 335 332 330 329 331 329 328 327 326 326 325 325
332 333 333 333 333 333 332 336 336 334 330 335 334 327 319 318 323 331 330 331 332 332 333 334 336 339 337 340 339 339 337 334 332 330 329 329 328 327 327 326 325 325 324
329 330 334 334 335 333 338 337 341 336 335 330 335 332 334 330 319 316 326 329 331 330 333 335 335 335 336 339 340 338 334 333 331 329 328 327 327 326 326 325 325 324 323
334 333 333 334 335 337 337 336 337 338 336 329 331 331 330 328 328 321 316 318 322 328 333 334 335 334 337 337 339 335 332 332 330 331 332 330 327 326 326 326 324 322 323
335 333 332 332 337 338 338 340 339 339 339 340 335 335 325 327 324 322 320 320 317 318 329 332 333 335 339 341 340 332 329 328 327 328 330 331 330 328 325 323 323 322 322
333 332 331 334 335 336 336 339 339 338 337 333 329 330 330 327 328 323 319 318 315 316 321 329 333 335 337 342 337 334 330 326 324 324 324 326 326 326 326 323 321 321 320
328 330 330 334 334 335 335 339 338 338 337 333 329 332 330 329 329 326 320 314 311 315 321 325 330 330 337 336 333 330 328 321 320 320 320 321 322 323 322 322 322 320 315
331 333 332 331 334 335 334 338 340 338 336 330 329 329 328 325 327 322 322 322 318 314 318 324 324 330 333 332 329 328 326 319 320 317 317 317 318 318 319 319 316 314 313
328 330 333 335 334 336 337 337 338 336 333 333 331 331 326 326 322 321 318 319 322 324 316 323 323 328 330 325 325 327 325 319 318 316 316 315 315 315 316 315 313 312 310
331 329 325 326 328 333 334 337 335 330 329 329 330 328 325 326 323 323 321 322 326 324 320 320 323 327 326 324 322 327 325 322 320 315 315 314 312 313 314 311 311 310 308
331 331 330 326 326 326 330 331 334 332 332 330 331 330 326 330 330 331 328 330 328 327 323 318 323 324 326 330 328 330 326 326 325 314 313 311 311 311 311 309 308 308 307
331 332 329 328 327 325 327 329 330 331 332 333 333 333 331 334 332 332 331 326 324 322 323 319 319 322 325 327 327 327 326 326 323 311 310 309 310 311 308 306 306 306 304
327 329 330 329 330 329 327 331 335 335 334 334 334 334 334 334 333 334 331 327 323 322 323 320 320 321 321 324 325 321 319 320 318 313 310 307 308 309 309 306 305 305 302
326 325 325 326 327 327 325 328 329 330 330 330 331 331 332 323 316 321 323 326 328 323 322 320 319 319 319 319 321 322 320 321 321 319 314 312 309 308 307 307 308 305 302
326 326 325 325 325 321 303 310 323 327 327 327 326 324 321 317 312 308 310 310 323 328 326 321 320 320 323 322 323 322 321 319 315 321 318 316 313 310 310 309 305 303 301
330 327 326 326 326 322 301 304 313 331 329 329 329 328 323 319 321 322 306 306 307 307 311 329 327 325 326 328 327 324 324 321 319 322 317 314 317 311 311 309 304 302 301
330 329 328 327 327 318 299 301 309 329 329 329 329 329 327 326 322 323 323 323 323 323 323 323 330 331 331 331 330 327 326 326 324 323 321 312 317 313 313 310 302 301 300
329 328 327 327 326 323 298 298 308 324 324 323 321 321 322 320 300 300 318 320 321 321 297 298 299 296 295 296 306 323 318 317 315 316 321 313 312 310 311 311 309 300 298
326 323 324 326 316 324 297 296 306 316 319 315 316 315 299 308 295 297 319 319 317 319 318 314 315 306 300 308 297 315 316 312 313 311 317 311 310 309 305 310 311 310 303
Wind_Speed
5 5 5 6 8 9 9 9 7 8 10 11 10 10 10 11 10 6 8 23 23 20 22 23 23 22 23 22 20 18 18 18 17 18 16 16 15 16 15 13 14 13 13
5 5 5 6 7 9 10 7 8 9 9 10 10 10 10 10 9 9 9 13 21 21 20 21 22 22 23 22 21 19 19 19 19 18 16 15 14 15 14 14 15 13 13
5 4 3 5 8 6 7 7 8 8 9 7 9 10 9 9 9 12 10 12 8 21 23 18 20 23 23 23 22 21 19 19 19 17 16 15 14 14 13 15 14 14 14
8 5 6 6 6 7 8 9 10 10 10 9 8 8 7 7 9 10 11 11 10 7 15 22 22 22 22 23 23 23 21 19 18 17 16 15 14 13 13 14 14 14 13
8 7 5 7 9 8 8 7 9 9 9 9 8 7 7 7 9 9 9 8 12 8 7 20 24 23 22 22 24 23 21 19 18 17 17 15 15 14 14 14 13 13 12
6 6 6 7 8 7 7 9 8 9 10 9 7 6 8 7 7 10 11 10 10 7 5 10 13 13 21 24 23 22 21 19 18 17 16 15 15 14 14 13 13 12 11
4 5 6 7 7 8 9 10 8 10 7 8 7 6 7 11 8 9 8 9 8 5 4 10 11 11 14 23 20 20 21 19 17 17 15 13 15 15 13 12 12 10 9
4 5 7 8 8 7 8 10 11 8 7 10 4 6 4 4 7 9 8 9 8 5 5 9 10 9 7 8 14 18 20 19 18 16 15 13 14 15 12 10 9 8 7
4 5 7 8 9 8 8 10 10 11 11 8 11 4 3 2 6 6 10 10 10 6 5 8 11 11 10 6 11 14 16 17 17 16 15 15 14 14 11 9 8 7 5
4 3 6 8 8 6 8 9 8 9 12 9 5 3 8 10 3 6 7 9 8 6 6 5 8 9 8 8 9 12 12 15 16 16 16 14 12 11 10 9 7 5 4
8 6 6 8 8 7 9 12 12 11 11 6 8 10 10 6 2 3 8 9 7 4 3 6 9 8 7 6 6 13 11 11 13 13 12 13 11 11 10 9 7 6 6
5 7 8 5 7 8 11 10 12 14 12 10 9 9 9 3 7 3 9 9 7 3 3 5 7 7 7 8 11 15 11 11 10 9 8 10 10 11 10 8 8 8 8
8 7 6 8 6 8 10 12 12 14 13 10 9 6 6 5 5 8 9 7 5 2 3 3 5 5 5 7 11 13 11 11 10 9 9 9 8 8 8 9 8 8 8
4 7 6 9 9 9 10 12 9 8 11 8 12 4 7 6 7 10 7 10 7 3 2 4 5 6 5 6 11 9 9 8 9 9 9 9 9 9 8 9 9 9 9
4 6 6 6 9 11 8 11 8 11 11 11 8 6 6 5 5 5 6 5 3 6 8 6 6 6 6 7 10 10 10 9 9 10 10 9 10 10 10 10 11 10 9
6 6 8 6 7 10 11 11 9 11 13 10 8 10 9 6 6 6 5 3 2 4 5 8 6 9 7 7 9 7 9 13 10 10 9 11 11 9 10 11 11 11 10
6 7 7 6 6 7 7 9 11 8 10 10 10 11 9 10 6 4 3 3 6 7 9 9 8 8 8 9 9 8 10 11 10 10 11 9 8 9 10 12 12 11 10
9 9 8 6 4 4 3 5 8 6 12 9 9 12 12 11 12 11 8 6 4 3 9 12 10 10 9 8 9 7 8 8 6 10 7 7 8 9 11 13 12 11 11
10 11 12 10 6 4 5 7 5 10 9 9 10 12 11 12 11 9 8 6 6 5 8 9 10 9 8 7 7 5 5 3 4 13 8 7 9 12 12 11 11 11 12
12 11 11 11 11 8 8 11 12 11 11 10 10 11 11 11 10 10 7 6 7 7 8 8 8 7 7 7 6 6 6 6 6 7 8 2 10 11 13 14 13 15 14
10 11 12 11 11 9 7 10 11 11 12 12 11 10 7 9 11 6 6 6 8 7 7 7 7 6 6 5 8 6 8 7 8 7 9 9 10 10 11 14 16 18 17
9 10 10 10 12 9 9 9 10 10 10 11 10 10 9 10 10 11 9 10 3 7 7 5 5 4 5 6 7 9 8 8 9 10 11 11 10 11 11 12 17 15 17
8 9 10 10 10 10 6 9 5 10 10 10 9 8 8 7 8 9 8 8 7 7 7 3 5 5 6 9 9 10 10 10 11 4 10 11 11 12 11 11 13 19 19
8 7 7 8 9 7 5 6 5 7 7 6 6 5 5 6 5 4 5 5 4 5 5 5 8 7 7 5 9 10 10 11 11 10 7 11 11 12 10 12 15 17 16
7 7 7 6 6 7 6 3 4 6 6 5 4 4 4 3 4 4 6 7 7 6 4 3 4 5 5 5 6 7 9 9 11 11 11 12 11 12 11 11 11 20 17
8 7 7 6 4 7 7 6 5 5 6 5 5 5 3 2 8 6 6 7 6 5 5 5 6 6 7 7 7 10 10 11 11 12 9 9 10 11 11 12 12 10 13
Wind_Direction
298 260 243 231 231 185 199 206 218 196 191 187 207 207 190 198 190 174 169 166 154 158 170 183 180 163 149 142 142 138 133 128 124 112 110 113 119 113 111 112 102 97 97
272 260 191 189 195 198 181 190 196 176 177 187 195 195 182 202 183 166 164 156 150 155 174 179 169 154 153 146 140 141 132 129 125 119 122 121 121 118 118 111 105 103 100
247 221 206 202 173 143 154 177 175 173 177 191 201 184 186 199 183 176 162 157 138 167 155 171 169 161 153 150 145 136 133 126 128 125 123 119 121 118 117 111 108 108 103
256 228 197 182 168 169 179 173 175 173 174 173 189 181 187 178 178 167 160 149 152 157 168 182 171 156 152 151 143 140 131 130 126 122 121 127 125 123 120 112 113 112 104
244 234 223 173 176 174 174 182 169 168 152 183 174 170 183 168 149 142 116 122 137 153 176 176 163 153 150 149 146 139 133 131 127 127 131 131 132 130 124 118 119 111 110
254 232 210 175 168 176 165 166 181 173 167 172 172 155 175 151 146 129 126 127 138 137 139 180 173 154 148 149 142 137 134 133 131 133 135 139 140 133 126 128 121 118 115
227 219 176 170 194 179 174 169 170 166 158 168 136 130 141 136 137 121 117 116 108 99 188 200 176 166 151 140 134 137 135 138 138 141 142 145 142 135 137 133 123 130 132
195 176 176 173 184 152 176 171 175 158 155 160 142 121 128 120 131 133 113 107 123 125 153 155 126 98 87 105 133 137 141 144 144 146 149 147 150 142 138 132 133 143 145
226 204 185 177 175 184 176 184 173 166 156 154 160 117 117 153 112 125 122 120 115 114 129 141 127 124 130 139 146 143 145 148 149 152 154 161 155 142 140 146 156 152 148
75 79 179 184 176 198 166 182 171 182 148 141 142 64 119 115 132 134 112 115 99 106 120 129 131 128 147 144 165 136 147 156 153 154 161 157 153 139 156 165 158 163 150
116 136 135 140 158 158 164 169 164 165 139 128 129 125 85 71 62 120 119 114 82 68 94 132 133 154 163 158 175 143 149 151 153 158 160 158 153 162 171 159 153 140 120
59 76 118 107 130 139 152 153 143 141 139 127 111 135 112 125 137 120 127 112 108 41 83 90 131 153 171 171 168 138 150 151 147 155 165 140 156 167 163 161 150 143 134
60 48 94 120 111 113 133 136 146 139 131 123 105 106 97 138 121 109 116 117 110 114 63 46 120 126 136 144 139 153 144 136 155 141 133 137 149 149 164 149 147 142 136
55 43 71 104 98 112 123 136 134 123 124 105 103 115 130 115 132 135 136 131 108 89 131 130 159 158 165 150 136 155 148 152 144 140 147 154 154 146 136 142 141 136 132
74 62 87 118 100 112 127 128 119 120 108 115 125 140 113 117 114 109 121 117 83 138 149 182 150 172 161 151 145 181 155 151 161 156 162 156 157 159 157 141 131 129 136
89 55 72 81 99 91 93 108 111 117 115 128 132 138 133 127 110 108 103 125 183 148 118 161 153 162 157 158 164 195 166 160 171 169 166 163 165 160 160 150 143 146 154
109 100 69 66 56 74 79 95 103 110 114 136 144 134 126 132 117 110 183 208 186 178 138 146 136 137 166 180 157 195 157 198 168 170 174 167 155 164 167 164 165 162 166
118 119 109 103 97 82 83 94 125 138 130 144 138 137 137 155 166 184 178 228 170 160 140 150 146 160 172 166 176 191 199 208 175 157 131 149 162 174 179 181 178 179 183
112 125 130 129 127 133 158 128 134 129 124 129 142 136 160 158 174 163 184 178 151 142 144 160 166 164 147 166 175 179 210 199 212 126 137 169 182 188 184 185 192 198 197
104 106 115 127 139 146 122 122 128 127 127 126 137 140 153 160 158 156 158 159 150 148 153 168 165 159 175 165 211 190 199 214 207 183 188 240 186 192 199 202 204 204 204
104 109 108 108 114 122 108 110 105 110 114 115 112 107 92 72 66 77 145 159 147 169 167 164 168 181 181 178 209 211 230 212 215 224 216 212 213 217 214 220 226 217 211
117 114 109 102 92 85 35 60 117 115 112 110 106 107 113 108 79 54 47 43 131 176 185 186 175 207 207 214 221 229 226 223 236 200 230 237 215 232 228 215 213 209 206
131 122 119 113 104 105 80 70 62 116 120 121 125 132 134 115 148 131 114 120 86 66 40 243 271 239 238 218 235 220 229 235 240 256 208 243 230 232 245 238 192 196 199
149 145 136 125 129 105 77 68 65 109 112 113 118 125 122 134 87 138 130 124 146 174 203 219 230 242 233 248 228 237 249 249 258 258 206 259 257 246 229 246 183 195 202
160 164 162 159 156 140 144 148 247 165 138 126 115 108 122 127 83 335 175 178 186 193 140 241 289 320 321 306 299 247 234 242 251 251 213 234 264 271 255 236 236 194 199
179 183 178 182 128 160 168 185 229 167 150 149 151 136 352 304 162 216 210 187 199 202 221 204 211 217 215 216 234 243 257 255 257 266 268 221 250 265 267 243 236 230 213